Location: Hermaringen
(48.5952°N, 10.2585°E)
Time: 10:04:28
(UTC+00:00)

Courier 1B - Pass Details

Date: 16 February 2026
Orbit: 962 x 1208 km, 28.3° (Epoch: 7 March)

Event Time Altitude Azimuth Distance (km) Brightness Sun altitude
Rises 20:41:51 0° 227° (SW) 4,001 10.9 -39.2°
Enters shadow 20:44:07 - 217° (SW) 3,457 10.4 -39.5°
Reaches altitude 10° 20:46:03 10° 206° (SSW) 3,081 - -39.8°
Maximum altitude 20:50:04 15° 174° (S) 2,737 - -40.3°
Drops below altitude 10° 20:54:09 10° 142° (SE) 3,132 - -40.9°
Sets 20:58:28 0° 121° (ESE) 4,106 - -41.5°
